P/2001 TU80 ( LINEAR-NEAT ) 2008

Japanese version
Home page
Total 5,708 html files since Dec. 4, 1995
Updated on April 11, 2008

---------------------------------------------------------------------

* Profile

* Orbital Elements

Perturbed ephemeris below is based on elements from MPC 44504. 

 Epoch = 2454800.50000 TT   T = 2454809.95112 TT
 Peri. =  355.02731         a =     3.6648946 AU
 Node  =  109.10623 J2000.0 e =     0.4705922
 Incl. =    6.58100         q =     1.9402239 AU

* Finding Charts

* Magnitudes Graph

        m1 = 14.0 + 5 log d + 10.0 log r

---------------------------------------------------------------------

The orbital elements are calculated using the Minor Planet & Comet Ephemeris Service.
The charts are made with StellaNavigator Ver.8 (AstroArts).
The magnitudes graphs are made with Comet for Windows.

---------------------------------------------------------------------

Copyright(C) 1995-2007 Seiichi Yoshida (comet@aerith.net). All rights reserved.